Inquirer Daily News

Weather

Get conditions and forecasts for any City, State, ZIP code or Country:  
Trenton, NJ
on Friday, December 21, 2012

Friday
Previous Day Next Day
Daily Summary
 ActualAverageRecord
Temperature
Mean Temperature °F 34°F  
Max Temperature 57°F 41°F 68°F (1895)
Min Temperature 36°F 26°F -2°F (1942)
Degree Days
Heating Degree Days 18 31  
Month to date heating degree days 444 593  
Since 1 July heating degree days 1451 1569  
Cooling Degree Days 0 0  
Month to date cooling degree days 0 0  
Year to date cooling degree days 1234 965  
Moisture
Dew Point 41°F   
Average Humidity 75    
Maximum Humidity 93    
Minimum Humidity 57    
Precipitation
Precipitation 1.10 in 0.11 in 1.40 in (1977)
Month to date precipitation 2.72 2.74  
Year to date precipitation 35.95 45.48  
Wind
Wind Speed 16 mph   
Max Wind Speed 37 mph   
Max Gust Speed 47 mph   
Visibility 7 miles   
Events Rain   

Key: T is trace of precipitation, MM is missing value
Source: NWS Daily Summary
Time(EST)TemperatureDew PointHumidity Pressure Visibility Wind DirectionWind SpeedGust SpeedPrecipitationEvents Conditions
12:10 AM 46.4°F 42.8°F 87% 29.67 in 7.0 miles SE 13.8 mph 23.0 mph 0.02 in Rain Light Rain
12:28 AM 46.4°F 44.6°F 93% 29.61 in 7.0 miles SE 18.4 mph 27.6 mph 0.05 in Rain Light Rain
12:45 AM 48.2°F 44.6°F 87% 29.60 in 7.0 miles SE 18.4 mph 27.6 mph 0.06 in Rain Rain
12:53 AM 48.0°F 45.0°F 89% 29.60 in 6.0 miles SE 16.1 mph 25.3 mph 0.08 in Rain Rain
1:42 AM 50.0°F 46.4°F 87% 29.55 in 4.0 miles SSE 19.6 mph 25.3 mph 0.14 in Rain Heavy Rain
1:53 AM 50.0°F 46.9°F 89% 29.51 in 4.0 miles SE 21.9 mph 29.9 mph 0.18 in Rain Rain
2:49 AM 51.8°F 48.2°F 88% 29.43 in 4.0 miles SSE 23.0 mph 28.8 mph 0.10 in Rain Light Rain
2:53 AM 52.0°F 48.9°F 89% 29.42 in 4.0 miles SSE 25.3 mph 33.4 mph 0.10 in Rain Light Rain
3:12 AM 51.8°F 48.2°F 88% 29.40 in 5.0 miles SSE 23.0 mph 36.8 mph 0.04 in Rain Rain
3:53 AM 54.0°F 51.1°F 90% 29.30 in 4.0 miles SSE 26.5 mph 39.1 mph 0.12 in Rain Rain
4:53 AM 55.9°F 52.0°F 87% 29.21 in 6.0 miles South 31.1 mph 43.7 mph 0.08 in Rain Light Rain
5:36 AM 55.4°F 53.6°F 94% 29.20 in 2.5 miles South 23.0 mph 38.0 mph 0.13 in Rain Rain
5:45 AM 55.4°F 53.6°F 94% 29.18 in 4.0 miles South 23.0 mph 39.1 mph 0.15 in Rain Light Rain
5:53 AM 57.0°F 53.1°F 87% 29.16 in 3.0 miles South 24.2 mph 35.7 mph 0.18 in Rain Heavy Rain
5:58 AM 57.2°F 53.6°F 88% 29.17 in 2.5 miles South 29.9 mph 38.0 mph 0.04 in Rain Heavy Rain
6:06 AM 57.2°F 53.6°F 88% 29.17 in 3.0 miles South 24.2 mph 38.0 mph 0.06 in Rain Rain
6:25 AM 57.2°F 53.6°F 88% 29.14 in 2.5 miles South 20.7 mph 35.7 mph 0.16 in Rain Rain
6:53 AM 57.0°F 54.0°F 89% 29.10 in 3.0 miles South 20.7 mph 34.5 mph 0.23 in Rain Light Rain
7:11 AM 57.2°F 55.4°F 94% 29.15 in 2.5 miles WSW 16.1 mph 28.8 mph 0.07 in Rain Heavy Rain
7:19 AM 53.6°F 51.8°F 94% 29.16 in 2.0 miles WNW 20.7 mph 33.4 mph 0.13 in Rain Heavy Rain
7:28 AM 51.8°F 48.2°F 88% 29.14 in 5.0 miles WNW 12.7 mph 28.8 mph 0.13 in Rain Light Rain
7:41 AM 51.8°F 48.2°F 88% 29.14 in 10.0 miles NW 11.5 mph 19.6 mph 0.13 in Rain Light Rain
7:53 AM 50.0°F 46.9°F 89% 29.15 in 10.0 miles WNW 10.4 mph 19.6 mph 0.14 in   Overcast
8:53 AM 45.0°F 37.9°F 76% 29.19 in 10.0 miles NW 16.1 mph 25.3 mph 0.00 in   Mostly Cloudy
9:40 AM 44.6°F 35.6°F 71% 29.24 in 10.0 miles WNW 15.0 mph 25.3 mph N/A   Mostly Cloudy
9:53 AM 44.1°F 35.1°F 71% 29.23 in 10.0 miles WNW 16.1 mph 24.2 mph N/A   Overcast
10:36 AM 42.8°F 33.8°F 70% 29.26 in 10.0 miles WNW 12.7 mph 24.2 mph 0.00 in   Overcast
10:53 AM 43.0°F 32.0°F 65% 29.24 in 10.0 miles WNW 16.1 mph 23.0 mph 0.00 in   Overcast
11:53 AM 42.1°F 28.9°F 60% 29.24 in 10.0 miles WNW 12.7 mph 20.7 mph 0.00 in   Overcast
12:53 PM 41.0°F 28.0°F 60% 29.25 in 10.0 miles WNW 17.3 mph 28.8 mph N/A   Overcast
1:53 PM 39.9°F 27.0°F 60% 29.26 in 10.0 miles WNW 13.8 mph 25.3 mph N/A   Overcast
2:53 PM 39.0°F 27.0°F 62% 29.28 in 10.0 miles West 12.7 mph 18.4 mph N/A   Overcast
3:53 PM 39.0°F 27.0°F 62% 29.30 in 10.0 miles West 10.4 mph 19.6 mph N/A   Overcast
4:53 PM 39.0°F 26.1°F 60% 29.31 in 10.0 miles West 11.5 mph 20.7 mph N/A   Overcast
5:53 PM 37.9°F 26.1°F 62% 29.33 in 10.0 miles West 10.4 mph 21.9 mph N/A   Overcast
6:53 PM 37.9°F 25.0°F 60% 29.34 in 10.0 miles West 15.0 mph 25.3 mph N/A   Overcast
7:53 PM 37.0°F 26.1°F 65% 29.34 in 10.0 miles West 8.1 mph - N/A   Overcast
8:53 PM 37.0°F 26.1°F 65% 29.36 in 10.0 miles West 11.5 mph 20.7 mph N/A   Overcast
9:53 PM 36.0°F 28.0°F 73% 29.37 in 10.0 miles West 10.4 mph - N/A   Overcast
10:53 PM 36.0°F 28.0°F 73% 29.37 in 10.0 miles West 10.4 mph 17.3 mph N/A   Overcast
11:53 PM 37.0°F 27.0°F 67% 29.37 in 10.0 miles West 13.8 mph 20.7 mph N/A   Mostly Cloudy
Astronomy
Sunrise:07:18 AM (EST) Moon Rise:12:22 PM (EST)12/21
Sunset:04:36 PM (EST) Moon Set:01:02 AM (EST)12/21
Moon Phase
Dec. 21 Dec. 28 Jan. 04 Jan. 11 Jan. 18

Copyright © 2014 The Weather Underground, Inc.